sat.trackr.live / text

‹ back to catalog

STARLINK-33885

NORAD 63886 · 2025-094Y

PAYLOAD ACTIVE UNKNOWN

§ Identity

Operator
Country
US
Launch date
2025-05-10
Launch site
AFWTR
Launch vehicle
Mass (kg)
RCS (m²)

Purposes: comms

External: N2YO · Heavens-Above · Gunter

§ Orbital elements

Epoch: 2026-05-25T02:40:51.290400Z

Period
96.11 min
Inclination
70.0018°
Eccentricity
0.0002696
Mean motion
14.98353561 rev/d
Perigee alt
570.1 km
Apogee alt
573.9 km
Semi-major
6,950.1 km
B*
5.8481e-4
RAAN
41.6417°
Arg perigee
271.8027°
Mean anomaly
88.2824°
Rev number
5,865

§ Raw data

STARLINK-338851 63886U 25094Y   26145.11170475  .00006896  00000+0  58481-3 0  99922 63886  70.0018  41.6417 0002696 271.8027  88.2824 14.98353561 58653

JSON: /api/v1/satellites/63886 · /tle

For live sub-satellite position, see the globe view (requires WebGL).

§ Visibility from observer

Set your observer location to see the next 7 days of passes ≥ 10°. The values pass through the URL so the page stays shareable.

No JS? Fill the form by hand. The geolocation button needs JavaScript.